Home   Weather   Landsberg am Lech   Past weeks

Flag for Germany Past Weather in Landsberg am Lech, Bavaria, Germany — Yesterday and Last 2 Weeks

41 °F

Quite cool.

Feels Like: 41 °F
Forecast: 35 / 58 °F
Wind: 2 mph from Southeast

Location: Landsberg

Current Time: Oct 27, 2016 at 8:59:22 PM

Latest Report: Oct 27, 2016 at 8:20 PM

Visibility: 4 mi

Pressure: 30.54 "Hg (28.39 "Hg at 593m altitude)

Humidity: 93%

Dew Point: 39 °F

Location of Landsberg am LechLocation

Past Weather in Landsberg am Lech — Graph


Landsberg am Lech Temperature Yesterday

Maximum temperature yesterday: 52 °F (at 3:20 PM)
Minimum temperature yesterday: 46 °F (at 11:20 PM)
Average temperature yesterday: 49 °F

High & Low Weather Summary for the Past Weeks

High64 °F (Oct 16, 3:20 PM)100% (Oct 13, 2:20 AM)30.54 "Hg (Oct 13, 2:20 AM)
Low32 °F (Oct 23, 2:20 AM)52% (Oct 24, 1:20 PM)29.68 "Hg (Oct 14, 4:20 PM)
Average48 °F87%30.06 "Hg
* Reported Oct 12 7:20 PM — Oct 27 7:20 PM, Landsberg am Lech, Weather by CustomWeather, © 2016

Note: Actual official high and low records may vary slightly from our data, if they occured in-between our weather recording intervals... More about our weather records


Landsberg am Lech Weather History for the Previous 24 Hours

Scroll right to see more
Time TempWeatherWind HumidityBarometerVisibility
7:20 PM
Thu, Oct 27
43 °FPassing clouds.2 mph93%30.54 "Hg4 mi
6:20 PM48 °FPassing clouds.3 mph76%30.54 "Hg5 mi
5:20 PM48 °FScattered clouds.5 mph76%30.51 "Hg6 mi
4:20 PM50 °FScattered clouds.6 mph76%30.51 "Hg6 mi
3:20 PM48 °FPartly sunny.5 mph76%30.51 "Hg5 mi
2:20 PM48 °FPartly sunny.5 mph76%30.51 "Hg5 mi
1:20 PM48 °FBroken clouds.3 mph76%30.54 "Hg4 mi
12:20 PM46 °FBroken clouds.3 mph82%30.54 "Hg4 mi
11:20 AM46 °FFog.5 mph87%30.54 "Hg3 mi
10:20 AM45 °FFog.6 mph100%30.51 "Hg2 mi
9:20 AM45 °FFog.1 mph100%30.48 "Hg2 mi
8:20 AM43 °FFog.1 mph100%30.48 "Hg1 mi
7:20 AM43 °FFog.3 mph100%30.45 "Hg1 mi
6:20 AM41 °FFog.3 mph100%30.45 "Hg0 mi
5:20 AM41 °FFog.2 mph100%30.42 "Hg0 mi
4:20 AM41 °FFog.1 mph100%30.42 "Hg0 mi
3:20 AM39 °FFog.2 mph100%30.42 "Hg0 mi
2:20 AM39 °FFog.2 mph100%30.42 "Hg0 mi
1:20 AM43 °FFog.No wind93%30.42 "Hg1 mi
12:20 AM45 °FFog.1 mph100%30.39 "Hg3 mi
11:20 PM
Wed, Oct 26
46 °FPassing clouds.2 mph93%30.39 "Hg6 mi
9:20 PM48 °FPassing clouds.5 mph94%30.39 "Hg4 mi
8:20 PM48 °FPartly cloudy.No wind94%30.36 "Hg4 mi
Weather by CustomWeather, © 2016

See weather overviewHow to use our weather pages